Погода в Панине

Россия / Липецкая область     52˚48′19″N   39˚45′57″E
темп.,
°C
ветер,
м/с
пор.,
м/с
влажн.,
%
обл.,
%
осадки,
мм/ч
давл.,
гПа
погр.,
м
17 января, вс
вс1700:00−14˚з499499 0.1 1009477
03:00−15˚з379599 0.2 1011331
06:00−18˚з349693 0.0 101176
09:00−19˚зсз239795 0.1 101348
12:00−16˚зсз239252 0.0 1015238
15:00−16˚ссз129364 0.0 101594
18:00−20˚с229536 0.0 101721
21:00−22˚ссв129549 0.0 101820
18 января, пн
пн1800:00−23˚ссв229693 0.0 101921
03:00−24˚с129796 0.0 101920
06:00−23˚ссв2296100 0.0 101939
09:00−23˚св1295100 0.0 102031
12:00−20˚ссв1191100 0.0 1020231
15:00−19˚с1189100 0.0 1019274
18:00−19˚с2398100 0.4 1018141
21:00−20˚ссз2298100 1.4 1019136
19 января, вт
вт1900:00−19˚с1298100 0.7 1018116
03:00−19˚сз1198100 1.1 101890
06:00−20˚ссз1199100 0.3 101725
09:00−20˚сз1197100 0.4 101825
12:00−18˚сз1291100 0.0 1017271
15:00−17˚сз2392100 0.1 1016317
18:00−19˚сз1297100 0.1 101725
21:00−18˚сз2297100 0.2 101849
20 января, ср
ср2000:00−18˚сз229792 0.1 101855
03:00−19˚сз239594 0.1 102050
06:00−20˚сз239683 0.0 102050
09:00−22˚сз239876 0.0 102222
12:00−17˚сз239353 0.0 1023198
15:00−16˚зсз249436 0.0 1024200
18:00−20˚зсз23960 0.0 102520
21:00−20˚з23970 0.0 102621
21 января, чт
чт2100:00−20˚з23970 0.0 102723
03:00−20˚зюз23972 0.0 102722
06:00−20˚зюз33970 0.0 102733
09:00−20˚юз339710 0.0 102758
12:00−14˚ююз479211 0.0 1027263
15:00−12˚ююз5109039 0.0 1025326
18:00−13˚ююз5139160 0.0 1024280
21:00−11˚юз6149376 0.1 1022392